UWE-3

Last updated on Wed Aug 19 2026 00:03:14 GMT+0000 (Coordinated Universal Time)

1 39446U 13066AG 26230.36966690 .00003481 00000+0 29721-3 0 9999 2 39446 97.8756 186.8942 0050471 111.1552 249.5074 14.97373371686883
UTC large
Height (km)
Speed (km/s)
/
Latitude / Longitude
Inclination (degrees)
Orbital Period (minutes)
Azimuth
Elevation
Range (km)
Doppler Factor

Next 0 passes for location: London (51.5072 / 0.1276)

No passes found over London.
UWE-3